#timestamp,LO_Frequency,Hit,StdDev 
1502787615.3,286046998.3,N,1.1
1502787635.1,286047000.5,N,1.1
1502787655.8,286047001.1,N,1.1
1502787675.7,286047000.8,N,1.1
1502787695.5,286047000.3,N,1.0
1502787715.4,286047001.0,N,1.0
1502787735.2,286046998.4,N,1.1
1502787755.0,286046998.9,N,1.1
1502787755.9,286046998.9,N,1.1
1502787775.8,286047000.8,N,1.1
1502787795.6,286047001.2,N,1.1
1502787815.5,286047000.9,N,1.1
1502787835.3,286047000.6,N,1.0
1502787855.1,286047001.0,N,1.0
1502787875.9,286047000.7,N,1.0
1502787895.7,286047000.8,N,1.0
1502787915.5,286047000.4,N,1.0
1502787935.4,286047001.2,N,1.0
1502787955.2,286046998.2,N,1.0
1502787975.1,286047000.9,N,1.0
1502787976.0,286047000.9,N,1.0
1502787995.8,286046998.1,N,1.1
1502788015.6,286047000.9,N,1.1
1502788035.5,286047000.1,N,1.0
1502788055.3,286047000.8,N,1.0
1502788075.2,286047001.0,N,1.0
1502788095.9,286047000.5,N,1.0
1502788115.7,286047000.8,N,1.0
1502788135.6,286047000.6,N,1.0
1502788155.4,286047001.1,N,1.0
1502788175.2,286047000.9,N,0.9
1502788195.1,286046999.9,N,0.9
1502788196.0,286046999.9,N,0.9
1502788215.8,286047002.5,N,1.0
1502788235.7,286046999.7,N,1.0
1502788255.5,286046999.8,N,1.0
1502788275.3,286046999.9,N,0.9
1502788295.2,286047000.2,N,0.9
1502788315.0,286047002.7,Y,0.0
1502788315.9,286047002.7,P,1.1
1502788335.8,286046999.7,N,1.3
1502788355.6,286047000.0,N,1.2
1502788375.4,286047000.3,N,1.1
1502788395.3,286047000.2,N,1.0
1502788415.1,286047000.5,N,0.9
1502788435.9,286047000.2,N,0.9
1502788455.7,286046999.9,N,0.8
1502788475.5,286046999.7,N,0.8
1502788495.4,286047002.3,N,1.0
1502788515.2,286046999.8,N,0.9
1502788535.1,286047001.8,N,1.0
1502788536.0,286047001.8,N,1.0
1502788555.8,286046999.9,N,1.0
1502788575.6,286047000.6,N,0.9
1502788595.5,286046999.9,N,0.9
1502788615.3,286047002.1,N,1.0
1502788635.2,286047002.4,N,1.0
1502788655.9,286047002.8,N,1.1
1502788675.7,286047000.1,N,1.1
1502788695.6,286046999.7,N,1.1
1502788715.4,286042622.4,Y,0.0
1502788735.3,286047000.0,P,0.4
1502788755.1,286047000.2,N,0.3
1502788775.8,286046998.1,P,1.0
1502788795.7,286047000.1,N,0.9
1502788815.5,286046999.9,N,0.8
1502788835.4,286047000.4,N,0.8
1502788855.2,286046999.7,N,0.7
1502788875.0,286047000.2,N,0.7
1502788875.9,286047000.2,N,0.7
1502788895.8,286047000.1,N,0.6
1502788915.6,286047002.5,Y,0.0
1502788935.5,286047002.7,P,1.4
1502788955.3,286047002.1,N,1.2
1502788975.2,286047001.9,N,1.0
1502788995.9,286047002.6,N,1.0
1502789015.7,286047002.3,N,0.9
1502789035.6,286046999.7,N,1.2
1502789055.4,286047002.7,N,1.1
1502789075.3,286047001.9,N,1.1
1502789095.1,286047002.3,N,1.0
1502789096.0,286047002.3,N,1.0
1502789115.8,286047001.8,N,1.0
1502789135.7,286047001.9,N,0.9
1502789155.5,286047002.1,N,0.9
1502789175.4,286047000.0,N,1.0
1502789195.2,286046999.7,N,1.1
1502789215.0,286047002.8,N,1.1
1502789215.9,286047002.8,N,1.1
1502789235.8,286047000.1,N,1.1
1502789255.6,286047000.6,N,1.1
1502789275.5,286047000.0,N,1.1
1502789295.3,286047000.3,N,1.1
1502789315.1,286046999.8,N,1.2
1502789335.9,286047000.8,N,1.1
1502789355.7,286047000.5,N,1.1
1502789375.6,286046998.3,N,1.3
1502789395.4,286046998.2,N,1.4
1502789415.2,286046998.4,N,1.4
1502789435.1,286046999.5,N,1.4
1502789436.0,286046999.5,N,1.4
1502789455.8,286046997.0,N,1.6
1502789475.7,286046997.0,N,1.7
1502789495.5,286046999.2,N,1.7
1502789515.3,286046996.6,N,1.8
1502789535.2,286046997.2,N,1.8
1502789555.0,286046996.8,N,1.9
1502789555.9,286046996.8,N,2.0
1502789575.8,286046997.2,N,2.0
1502789595.6,286046997.3,N,2.0
1502789615.4,286046994.9,N,2.1
1502789635.3,286046997.5,N,2.0
1502789655.1,286046995.3,N,2.1
1502789675.9,286046998.0,N,2.0
1502789695.7,286046995.4,N,2.0
1502789715.5,286046996.3,N,2.0
1502789735.4,286046995.8,N,2.1
1502789755.2,286046995.5,N,1.9
1502789775.0,286046993.8,Y,0.0
1502789776.0,286046993.8,P,2.1
1502789795.8,286046995.4,N,1.8
1502789815.6,286046995.7,N,1.5
1502789835.5,286046993.6,Y,0.0
1502789855.3,286046998.8,P,1.5
1502789875.2,286046999.9,N,1.8
1502789895.9,286047002.4,N,2.4
1502789915.7,286047000.1,N,2.2
1502789935.6,286047000.4,N,2.0
1502789955.4,286047002.8,N,2.2
1502789975.3,286047000.5,N,2.0
1502789995.1,286047000.4,N,1.9
1502789996.0,286047000.4,N,1.8
1502790015.8,286047000.7,N,1.8
1502790035.7,286046998.9,N,1.7
1502790055.5,286047000.5,N,1.7
1502790075.4,286047000.7,N,1.6
1502790095.2,286046998.1,N,1.6
1502790115.0,286046998.6,N,1.6
1502790115.9,286046998.6,N,1.6
1502790135.8,286046999.4,N,1.6
1502790155.6,286046999.3,N,1.5
1502790175.4,286046997.2,N,1.6
1502790195.3,286046999.1,N,1.6
1502790215.1,286046998.7,N,1.5
1502790235.9,286046999.4,N,1.5
1502790255.7,286046997.0,N,1.6
1502790275.5,286046999.2,N,1.5
1502790295.4,286046997.8,N,1.5
1502790315.2,286046997.3,N,1.6
1502790335.1,286046997.5,N,1.6
1502790336.0,286046997.5,N,1.6
1502790355.8,286046995.1,Y,0.0
1502790375.6,286046996.9,P,1.2
1502790395.5,286046997.1,N,1.0
1502790415.3,286046997.6,N,0.9
1502790435.2,286046995.2,Y,0.0
1502790455.9,286046999.0,P,0.6
1502790475.7,286046999.2,N,0.7
1502790495.6,286046996.6,P,1.1
1502790515.4,286046999.5,N,1.1
1502790535.3,286046998.4,N,1.0
1502790555.1,286046999.1,N,1.0
1502790556.0,286046999.1,N,0.9
1502790575.8,286046999.5,N,0.9
1502790595.7,286046999.4,N,0.9
1502790615.5,286046998.9,N,0.8
1502790635.4,286047001.2,N,1.1
1502790655.2,286046998.4,N,1.0
1502790675.0,286046998.7,N,1.0
1502790675.9,286046998.7,N,1.0
1502790695.8,286046998.4,N,0.9
1502790715.6,286047000.6,N,1.0
1502790735.4,286046998.5,N,1.0
1502790755.3,286046998.9,N,0.9
1502790775.1,286046999.3,N,0.9
1502790795.9,286046999.2,N,0.9
1502790815.7,286046996.6,Y,0.0
1502790835.5,286046999.4,P,0.2
1502790855.4,286046998.8,P,0.3
1502790875.2,286046998.9,P,0.2
1502790895.1,286046999.6,N,0.3
1502790896.0,286046999.6,N,0.3
1502790915.8,286046996.7,Y,0.0
1502790935.6,286046999.6,P,0.2
1502790955.5,286046999.6,N,0.2
1502790975.3,286046999.6,N,0.2
1502790995.2,286046996.5,Y,0.0
1502791015.9,286046998.8,P,0.4
1502791035.7,286046998.8,P,0.3
1502791055.6,286046998.4,P,0.4
1502791075.4,286047001.1,N,1.0
1502791095.3,286046998.6,N,0.9
1502791115.1,286046999.2,N,0.8
1502791116.0,286046999.2,N,0.8
1502791135.8,286046998.1,N,0.8
1502791155.7,286046998.6,N,0.8
1502791175.5,286047000.9,N,0.9
1502791195.4,286047000.6,N,1.0
